Hourly Data Report for November 30, 2017

All times are specified in Local Standard Time (LST). Add 1 hour to adjust for Daylight Saving Time where and when it is observed.

GIMLI CLIMATE
MANITOBA

50°38'00.000" N
97°03'00.000" W
230.10 m
5031042
71748
PGH

Download Data

Hourly Data (November 2017)
Hourly Data Report for November 30, 2017
Temp Definition
°C
Dew Point Temp Definition
°C
Rel Hum Definition
%
Wind Dir Definition
10's deg

Wind Spd Definition
km/h
Visibility Definition
km
Stn Press Definition
kPa
Hmdx Definition


Wind Chill Definition


Weather Definition


TIME
00:00 -2.2 -5.7 77 31 29   97.75   -9 LegendNANA
01:00 -2.8 -6.4 76 31 24   97.88   -9 LegendNANA
02:00 -3.1 -6.7 76 29 18   98.03   -9 LegendNANA
03:00 -1.4 -5.6 73 29 24   98.17   -8 LegendNANA
04:00 -1.0 -5.5 71 30 22   98.26   -7 LegendNANA
05:00 -0.9 -5.3 72 30 22   98.35   -7 LegendNANA
06:00 -1.1 -5.3 73 31 21   98.42   -7 LegendNANA
07:00 -1.4 -5.1 76 32 15   98.48   -6 LegendNANA
08:00 -1.4 -4.8 77 32 14   98.56   -6 LegendNANA
09:00 -1.5 -4.8 78 34 14   98.60   -6 LegendNANA
10:00 -1.3 -5.1 75 30 9   98.66   -5 LegendNANA
11:00 -0.8 -4.9 73 29 9   98.74   -4 LegendNANA
12:00 -0.2 -4.4 73 20 8   98.70   -3 LegendNANA
13:00 0.9 -5.2 64 23 10   98.66     LegendNANA
14:00 1.2 -4.5 66 21 19   98.55     LegendNANA
15:00 0.2 -3.8 74 18 24   98.46     LegendNANA
16:00 -0.5 -4.3 76 19 22   98.42   -6 LegendNANA
17:00 -1.3 -3.9 83 19 21   98.38   -7 LegendNANA
18:00 -2.0 -4.1 85 19 20   98.33   -8 LegendNANA
19:00 -1.2 -3.4 85 19 20   98.25   -7 LegendNANA
20:00 0.6 -2.8 78 22 19   98.23     LegendNANA
21:00 1.4 -2.7 75 22 22   98.20     LegendNANA
22:00 1.4 -2.5 75 22 24   98.17     LegendNANA
23:00 0.6 -3.3 76 24 19   98.20     LegendNANA

Notes on Data Quality.

Legend

  • E = Estimated
  • M = Missing
  • NA = Not Available
  • ‡ = Partner data that is not subject to review by the National Climate Archives
Date modified: